SCP
-0 -0 -0 -0 -0 0 0 -0 -0 -0 -0 -0 -0 -0 -0 -0 -0 0 -0 -0 -0 -0 -0 -0 -0 -0 -0 -0 -0 -0 -0 -0 0 0 -0 0 0 0 0 0 0 0 0
-0 0 0 0 -0 -0 0 -0 -0 -0 -0 -0 -0 -0 -0 -0 0 0 0 -0 -0 -0 -0 -0 -0 -0 -0 -0 -0 0 0 0 0 -0 -0 0 0 0 0 0 0 0 0
-0 -0 0 0 0 0 -0 -0 -0 -0 -0 -0 -0 -0 -0 -0 0 0 0 -0 -0 -0 -0 -0 -0 -0 0 0 0 0 0 0 0 -0 0 0 -0 0 0 0 0 0 0
-0 -0 -0 -0 0 0 0 -0 -0 -0 -0 -0 -0 -0 -0 0 0 0 0 -0 -0 -0 -0 -0 0 0 0 0 0 0 0 0 0 -0 0 0 0 0 0 0 0 0 0
-0 -0 -0 -0 -0 0 0 0 0 -0 -0 -0 -0 -0 0 0 0 0 0 0 -0 -0 -0 0 0 0 0 0 0 0 0 0 0 -0 -0 0 0 0 0 0 0 0 0
-0 -0 -1 -0 -0 -0 0 0 -0 0 0 0 0 0 0 0 0 0 0 0 -0 -0 0 0 0 0 0 0 0 0 0 0 0 -0 0 0 0 0 0 0 0 0 0
-0 -0 -0 -0 -0 -0 -0 -0 -0 0 0 0 0 0 0 0 0 0 0 0 0 0 0 0 0 0 0 0 0 0 0 0 -0 0 0 0 0 0 0 0 0 0 0
-0 -0 -0 -0 -0 -0 -0 -0 0 0 0 0 0 0 0 0 0 0 0 0 0 0 0 0 0 0 0 0 0 0 0 0 0 0 0 0 0 1 1 0 0 0 0
-0 -0 -0 -0 -0 -0 -0 -0 0 0 0 0 0 0 0 0 0 0 0 0 0 0 0 0 0 0 0 0 0 0 0 0 0 0 0 0 0 0 0 0 0 0 0
-0 -0 -0 -0 -0 -0 -0 -0 -0 -0 0 -0 0 0 0 0 0 0 0 0 0 0 0 0 0 0 0 0 0 0 0 0 0 0 0 0 0 0 0 0 0 0 0
0 -0 -0 -0 -0 -0 -0 -0 -0 -0 -0 -0 -0 -0 0 0 0 0 0 0 -0 0 0 0 0 0 0 0 0 0 0 0 0 0 0 0 0 0 0 0 0 0 0
0 -0 -0 -0 -0 -0 -0 -0 -0 -0 -0 -0 -0 -0 0 0 0 0 0 -0 -0 0 0 0 0 0 0 0 0 0 0 0 0 0 0 0 0 0 0 0 0 0 0
-0 -0 -0 -0 0 -0 -0 -0 -0 -0 -0 -0 -0 -0 0 0 0 0 0 0 0 0 0 0 0 0 0 0 0 1 0 0 0 0 0 0 0 0 0 0 0 0 0
0 -0 -0 -0 -0 0 0 -0 -0 -0 -0 -0 -0 -0 -0 0 0 0 0 0 0 0 0 0 0 0 0 1 1 1 1 0 0 0 0 0 0 0 0 0 0 0 0
-0 -0 -0 -0 -0 -0 0 0 -0 -0 -0 -0 -0 -0 -0 0 0 0 0 0 0 0 0 0 0 1 2 4 1 1 1 1 1 1 0 0 0 0 0 0 0 0 0
-0 -0 -0 -0 -0 -0 -0 0 -0 0 0 -0 -0 0 -0 0 0 0 0 0 0 0 0 1 2 3 2 1 1 0 0 1 1 1 0 0 0 0 0 0 0 0 0
-0 -0 -0 -0 -0 -0 -0 -0 -0 0 0 0 0 0 0 1 1 1 0 0 0 1 2 4 2 1 0 1 0 0 0 0 0 0 0 0 0 0 0 0 0 0 0
-0 0 0 0 -0 -0 -0 0 0 0 0 0 0 0 0 0 1 1 1 1 1 5 6 3 2 0 1 0 0 0 0 0 0 0 0 0 0 0 0 0 0 0 0
0 0 0 0 0 -0 0 0 0 0 0 0 0 0 0 0 0 2 1 2 5 5 2 1 0 0 0 0 0 0 0 0 0 -0 0 0 0 0 0 0 0 0 0
0 0 0 1 0 0 0 0 0 0 1 1 1 1 1 1 2 3 2 7 7 7 2 1 0 0 0 0 0 0 -0 -0 -0 -0 0 0 0 0 0 0 0 0 0
0 1 1 1 2 1 1 1 1 1 1 2 2 3 0 1 2 6 6 9 7 8 2 1 0 0 0 0 0 -0 -0 -0 -0 -0 0 0 0 0 0 0 0 0 0
0 1 1 2 2 2 2 2 1 3 2 2 0 1 2 2 1 4 5 2 8 7 2 0 0 0 0 0 0 -0 -0 -0 -0 0 0 0 0 0 0 0 0 0 0
0 1 0 1 2 2 3 3 5 5 3 3 2 1 3 4 6 7 7 7 8 3 0 0 0 0 0 0 0 -0 -0 0 0 0 0 0 0 0 0 0 0 0 0
0 -0 -0 -1 0 2 4 2 3 2 2 2 3 5 7 8 6 4 6 6 8 1 0 0 0 0 0 0 0 0 0 0 0 0 0 0 0 0 0 0 0 0 0
0 0 0 -0 -1 -2 1 1 -1 -0 1 1 0 2 3 4 5 2 4 5 6 2 1 0 0 0 0 0 0 0 0 0 0 0 0 0 0 0 0 0 0 0 0
0 0 0 0 -0 1 1 1 -0 -1 -1 -0 2 2 2 5 8 4 5 6 4 2 1 1 0 0 0 0 0 0 0 0 0 0 0 0 0 0 0 0 0 0 0
Wind_Speed_500mb
22 32 41 44 43 40 42 43 39 35 32 29 25 22 22 24 25 27 28 29 29 28 27 23 20 16 15 16 17 18 17 13 10 8 6 4 8 11 14 14 10 10 18
30 33 42 44 43 40 39 41 39 35 31 28 25 22 22 23 24 27 26 26 25 25 25 24 21 17 15 17 17 17 13 10 6 2 7 11 19 20 23 21 16 15 24
36 39 43 44 43 40 38 37 37 34 30 27 26 25 23 23 22 24 23 24 24 25 25 25 22 19 19 19 19 17 13 7 3 3 12 14 15 30 24 19 18 20 25
37 42 44 43 41 39 36 35 34 32 30 29 27 24 22 21 20 21 22 23 23 24 24 24 23 22 20 19 18 16 13 10 7 7 9 13 13 22 23 21 24 27 28
33 40 43 42 40 37 34 34 33 31 30 28 25 23 22 20 19 19 20 21 22 23 23 24 24 22 21 20 21 19 16 14 13 12 11 15 10 22 22 27 33 35 29
31 36 40 42 40 37 35 33 31 30 28 26 24 23 21 20 19 19 18 20 22 24 25 26 25 24 23 23 22 21 20 19 19 19 29 15 20 27 27 31 33 34 31
31 34 38 42 38 36 33 31 29 28 25 24 23 23 22 21 19 18 18 21 24 26 28 29 28 27 26 25 24 24 25 25 25 23 23 25 26 29 36 39 35 29 30
31 33 38 43 39 34 32 30 28 26 24 23 24 25 24 23 20 19 18 22 26 30 31 31 32 31 30 29 29 30 31 31 29 28 34 22 32 37 43 45 37 29 28
30 31 33 43 40 36 33 31 29 28 26 25 26 26 26 25 23 21 20 23 28 31 33 35 36 36 36 35 35 36 37 36 35 27 28 28 41 39 45 47 36 29 30
29 31 29 37 40 38 35 33 33 31 29 28 27 28 29 29 27 25 24 25 29 33 36 38 40 41 40 40 39 40 41 38 37 27 30 36 37 46 50 43 36 32 34
28 32 30 33 34 35 31 32 34 35 34 33 32 31 32 30 28 32 30 29 31 36 39 41 43 42 41 40 38 38 39 37 28 31 30 37 45 50 47 41 37 38 40
28 34 34 33 36 34 33 35 32 36 39 38 35 34 36 28 26 27 31 35 33 36 40 42 42 41 42 38 35 41 33 26 27 32 35 44 48 52 47 41 42 43 43
27 33 35 36 37 35 33 34 24 33 31 33 35 33 29 27 29 32 32 35 37 40 39 37 38 42 36 32 31 42 23 29 31 32 38 44 49 55 48 45 45 46 45
27 31 34 37 39 39 34 36 32 30 33 32 33 38 37 32 33 33 32 30 31 25 26 28 28 27 26 33 33 38 38 35 36 35 35 48 49 54 53 49 49 48 47
29 32 34 38 41 41 45 36 36 34 35 33 34 34 36 36 35 35 36 35 33 30 30 29 28 35 30 31 41 34 34 39 35 32 35 46 51 52 55 52 49 45 43
31 34 36 39 41 41 43 44 36 37 36 37 36 36 41 41 42 39 39 38 37 37 35 37 49 50 53 49 40 42 38 36 41 38 36 36 50 48 54 53 44 41 40
35 39 41 43 44 45 44 42 44 38 37 38 38 42 45 48 48 47 40 42 41 41 49 55 59 54 49 50 52 87 98 89 42 48 60 40 37 44 46 50 50 44 38
33 39 43 43 42 46 42 41 38 35 33 32 34 36 38 40 40 38 38 42 43 59 65 70 53 62 60 62 68 75 95 88 83 62 52 48 39 30 37 47 47 42 38
38 40 43 43 43 45 47 42 33 30 30 28 30 34 33 33 32 39 41 49 56 60 68 72 60 61 65 62 64 69 57 53 46 50 53 44 43 35 26 38 45 41 34
39 43 42 44 49 48 42 34 34 34 29 26 26 32 34 25 31 40 57 61 67 69 83 77 69 77 76 86 52 57 46 46 56 57 51 42 38 30 30 25 32 32 32
38 43 47 45 44 45 43 42 36 38 38 34 32 34 51 66 61 71 80 84 77 81 97 78 60 24 43 60 55 44 44 50 49 46 44 39 32 31 31 28 30 25 32
29 37 37 42 46 53 44 46 41 43 45 53 48 63 72 70 91 82 90 88 80 82 70 63 57 36 27 50 39 39 21 28 28 35 33 36 33 31 33 33 32 33 34
6 22 33 43 43 43 39 36 46 50 53 55 73 39 51 74 64 59 60 72 70 79 80 76 56 30 18 25 48 40 13 13 19 24 35 32 31 32 32 31 32 38 41
19 5 16 23 30 28 33 36 44 41 43 41 59 39 28 34 48 53 61 60 62 71 75 72 59 41 27 28 50 46 42 38 14 23 23 28 33 31 31 29 33 37 42
34 22 4 7 17 13 20 14 31 38 35 27 27 36 43 41 44 41 43 44 51 61 68 59 62 42 48 46 60 44 24 20 29 30 35 32 28 31 32 34 37 33 38
37 31 25 18 7 6 7 6 22 35 33 25 22 23 26 30 32 31 32 37 45 51 70 50 66 72 52 42 45 29 22 29 28 30 35 38 40 40 39 40 40 31 32
Wind_Direction_500mb
166 180 167 162 161 164 168 170 169 168 165 161 153 149 148 147 153 154 151 150 152 157 166 172 176 176 172 172 176 172 168 163 154 133 112 60 356 346 344 342 4 324 259
168 181 168 165 166 166 169 172 174 177 173 169 166 165 162 159 158 162 161 166 169 173 179 186 192 191 189 188 189 184 185 179 165 104 7 341 343 329 328 324 318 273 274
169 175 170 170 170 172 172 177 179 182 182 181 181 179 174 171 169 172 175 178 182 184 189 193 196 198 199 197 195 200 204 211 230 333 5 15 280 306 317 324 321 304 292
166 169 173 173 173 175 176 181 185 187 190 190 191 186 183 180 177 180 181 186 189 194 196 198 201 203 202 204 209 211 219 234 256 294 347 309 298 285 305 320 323 317 305
166 167 178 175 175 176 179 183 186 188 191 193 196 194 193 190 185 190 191 195 199 202 202 205 207 209 212 216 220 225 235 252 271 299 308 291 287 279 287 316 321 318 304
167 169 178 177 177 178 180 183 185 188 194 198 203 202 201 199 196 200 203 208 211 211 212 212 213 215 222 228 232 240 252 262 274 287 259 272 303 261 288 317 319 308 292
169 174 183 179 181 183 185 188 189 192 198 206 210 210 209 208 206 212 216 221 221 219 217 216 218 223 230 238 248 256 264 272 279 280 284 289 254 264 288 312 311 302 283
170 177 183 181 185 187 192 196 198 200 206 213 216 216 215 217 217 221 229 230 226 223 220 221 225 231 238 245 254 262 268 273 277 284 274 286 275 281 289 305 304 295 278
174 178 181 186 188 192 199 202 206 209 212 217 220 222 223 225 225 229 238 237 231 227 226 228 232 238 245 251 258 266 271 275 277 275 264 283 266 273 288 303 303 288 275
179 182 185 183 195 199 205 206 211 216 218 221 225 227 228 230 232 236 241 242 236 232 231 235 239 243 249 255 262 269 274 276 276 271 271 268 269 280 289 303 301 286 277
185 186 189 189 196 196 205 219 217 220 223 226 229 231 234 234 240 242 241 239 238 237 238 241 244 248 254 260 268 279 284 278 270 269 276 271 274 277 293 303 297 288 284
190 191 193 194 197 199 201 219 236 230 228 231 232 235 234 231 223 239 245 260 252 244 243 244 247 251 256 261 272 271 291 270 264 275 275 275 276 282 295 300 295 291 287
191 193 196 198 199 203 203 211 218 213 221 225 223 224 231 226 235 236 234 255 256 247 245 248 251 254 254 256 268 270 264 271 275 277 279 281 282 286 294 297 292 285 277
185 195 200 203 202 203 209 214 218 221 221 224 230 227 217 232 228 234 239 239 240 245 244 233 246 252 257 256 261 270 270 282 272 276 287 284 286 286 294 296 289 283 275
190 196 200 202 204 207 206 215 217 222 225 227 227 234 224 228 233 235 239 237 238 242 239 238 242 240 242 233 256 260 279 276 275 276 277 288 290 292 297 299 292 283 275
196 199 198 203 208 206 211 211 218 221 224 229 228 232 236 229 234 236 239 239 238 234 232 230 222 229 233 244 248 261 275 274 274 273 271 270 287 293 298 301 304 290 279
204 201 203 203 208 213 214 220 218 223 228 228 235 232 232 243 231 233 245 245 243 237 224 221 227 230 250 242 263 286 273 277 275 264 274 278 274 287 297 298 301 294 279
213 211 209 209 212 220 213 223 223 231 235 245 247 248 249 248 255 260 263 263 258 244 228 235 239 240 245 263 292 272 272 274 263 272 272 272 274 278 288 292 291 293 279
223 217 217 212 213 220 228 220 228 231 243 254 264 266 261 258 261 267 268 271 262 257 249 241 233 252 250 277 281 288 278 254 259 269 271 262 266 276 277 280 283 293 278
231 227 221 222 218 216 226 231 225 231 236 235 253 279 273 259 245 260 258 267 248 261 252 249 247 276 254 263 261 271 267 257 257 267 271 266 266 261 265 264 278 296 290
234 230 227 222 227 226 220 223 227 226 217 227 234 243 322 274 246 265 260 257 260 254 251 242 253 263 328 290 268 263 272 271 264 272 266 258 256 260 260 258 266 272 276
238 228 227 229 226 233 224 223 226 226 222 241 255 283 249 254 261 259 267 250 259 242 244 254 249 254 300 287 271 283 286 296 277 271 259 241 249 250 255 261 266 259 258
267 239 232 232 238 235 234 233 233 229 232 239 258 284 252 256 266 271 271 260 249 243 255 261 242 222 225 245 236 261 269 250 293 254 242 233 243 253 259 267 265 260 261
35 334 253 235 223 227 234 241 243 245 252 259 260 274 250 240 252 261 260 252 248 250 252 235 233 229 247 235 230 257 260 243 279 278 250 256 253 250 264 264 265 264 263
30 24 3 207 220 213 211 224 243 268 265 269 261 263 270 272 270 266 259 266 259 250 245 253 231 244 262 242 240 258 256 254 261 262 279 280 271 257 266 267 269 270 280
29 31 32 23 358 336 231 262 237 224 249 253 265 272 279 282 268 268 257 268 267 250 242 250 232 250 239 248 246 235 240 247 255 263 271 277 280 278 275 274 270 263 280
Wind_Speed_850mb
22 32 41 44 43 40 42 43 39 35 32 29 25 22 22 24 25 27 28 29 29 28 27 23 20 16 15 16 17 18 17 13 10 8 6 4 8 11 14 14 10 10 18
30 33 42 44 43 40 39 41 39 35 31 28 25 22 22 23 24 27 26 26 25 25 25 24 21 17 15 17 17 17 13 10 6 2 7 11 19 20 23 21 16 15 24
36 39 43 44 43 40 38 37 37 34 30 27 26 25 23 23 22 24 23 24 24 25 25 25 22 19 19 19 19 17 13 7 3 3 12 14 15 30 24 19 18 20 25
37 42 44 43 41 39 36 35 34 32 30 29 27 24 22 21 20 21 22 23 23 24 24 24 23 22 20 19 18 16 13 10 7 7 9 13 13 22 23 21 24 27 28
33 40 43 42 40 37 34 34 33 31 30 28 25 23 22 20 19 19 20 21 22 23 23 24 24 22 21 20 21 19 16 14 13 12 11 15 10 22 22 27 33 35 29
31 36 40 42 40 37 35 33 31 30 28 26 24 23 21 20 19 19 18 20 22 24 25 26 25 24 23 23 22 21 20 19 19 19 29 15 20 27 27 31 33 34 31
31 34 38 42 38 36 33 31 29 28 25 24 23 23 22 21 19 18 18 21 24 26 28 29 28 27 26 25 24 24 25 25 25 23 23 25 26 29 36 39 35 29 30
31 33 38 43 39 34 32 30 28 26 24 23 24 25 24 23 20 19 18 22 26 30 31 31 32 31 30 29 29 30 31 31 29 28 34 22 32 37 43 45 37 29 28
30 31 33 43 40 36 33 31 29 28 26 25 26 26 26 25 23 21 20 23 28 31 33 35 36 36 36 35 35 36 37 36 35 27 28 28 41 39 45 47 36 29 30
29 31 29 37 40 38 35 33 33 31 29 28 27 28 29 29 27 25 24 25 29 33 36 38 40 41 40 40 39 40 41 38 37 27 30 36 37 46 50 43 36 32 34
28 32 30 33 34 35 31 32 34 35 34 33 32 31 32 30 28 32 30 29 31 36 39 41 43 42 41 40 38 38 39 37 28 31 30 37 45 50 47 41 37 38 40
28 34 34 33 36 34 33 35 32 36 39 38 35 34 36 28 26 27 31 35 33 36 40 42 42 41 42 38 35 41 33 26 27 32 35 44 48 52 47 41 42 43 43
27 33 35 36 37 35 33 34 24 33 31 33 35 33 29 27 29 32 32 35 37 40 39 37 38 42 36 32 31 42 23 29 31 32 38 44 49 55 48 45 45 46 45
27 31 34 37 39 39 34 36 32 30 33 32 33 38 37 32 33 33 32 30 31 25 26 28 28 27 26 33 33 38 38 35 36 35 35 48 49 54 53 49 49 48 47
29 32 34 38 41 41 45 36 36 34 35 33 34 34 36 36 35 35 36 35 33 30 30 29 28 35 30 31 41 34 34 39 35 32 35 46 51 52 55 52 49 45 43
31 34 36 39 41 41 43 44 36 37 36 37 36 36 41 41 42 39 39 38 37 37 35 37 49 50 53 49 40 42 38 36 41 38 36 36 50 48 54 53 44 41 40
35 39 41 43 44 45 44 42 44 38 37 38 38 42 45 48 48 47 40 42 41 41 49 55 59 54 49 50 52 87 98 89 42 48 60 40 37 44 46 50 50 44 38
33 39 43 43 42 46 42 41 38 35 33 32 34 36 38 40 40 38 38 42 43 59 65 70 53 62 60 62 68 75 95 88 83 62 52 48 39 30 37 47 47 42 38
38 40 43 43 43 45 47 42 33 30 30 28 30 34 33 33 32 39 41 49 56 60 68 72 60 61 65 62 64 69 57 53 46 50 53 44 43 35 26 38 45 41 34
39 43 42 44 49 48 42 34 34 34 29 26 26 32 34 25 31 40 57 61 67 69 83 77 69 77 76 86 52 57 46 46 56 57 51 42 38 30 30 25 32 32 32
38 43 47 45 44 45 43 42 36 38 38 34 32 34 51 66 61 71 80 84 77 81 97 78 60 24 43 60 55 44 44 50 49 46 44 39 32 31 31 28 30 25 32
29 37 37 42 46 53 44 46 41 43 45 53 48 63 72 70 91 82 90 88 80 82 70 63 57 36 27 50 39 39 21 28 28 35 33 36 33 31 33 33 32 33 34
6 22 33 43 43 43 39 36 46 50 53 55 73 39 51 74 64 59 60 72 70 79 80 76 56 30 18 25 48 40 13 13 19 24 35 32 31 32 32 31 32 38 41
19 5 16 23 30 28 33 36 44 41 43 41 59 39 28 34 48 53 61 60 62 71 75 72 59 41 27 28 50 46 42 38 14 23 23 28 33 31 31 29 33 37 42
34 22 4 7 17 13 20 14 31 38 35 27 27 36 43 41 44 41 43 44 51 61 68 59 62 42 48 46 60 44 24 20 29 30 35 32 28 31 32 34 37 33 38
37 31 25 18 7 6 7 6 22 35 33 25 22 23 26 30 32 31 32 37 45 51 70 50 66 72 52 42 45 29 22 29 28 30 35 38 40 40 39 40 40 31 32
Wind_Direction_850mb
166 180 167 162 161 164 168 170 169 168 165 161 153 149 148 147 153 154 151 150 152 157 166 172 176 176 172 172 176 172 168 163 154 133 112 60 356 346 344 342 4 324 259
168 181 168 165 166 166 169 172 174 177 173 169 166 165 162 159 158 162 161 166 169 173 179 186 192 191 189 188 189 184 185 179 165 104 7 341 343 329 328 324 318 273 274
169 175 170 170 170 172 172 177 179 182 182 181 181 179 174 171 169 172 175 178 182 184 189 193 196 198 199 197 195 200 204 211 230 333 5 15 280 306 317 324 321 304 292
166 169 173 173 173 175 176 181 185 187 190 190 191 186 183 180 177 180 181 186 189 194 196 198 201 203 202 204 209 211 219 234 256 294 347 309 298 285 305 320 323 317 305
166 167 178 175 175 176 179 183 186 188 191 193 196 194 193 190 185 190 191 195 199 202 202 205 207 209 212 216 220 225 235 252 271 299 308 291 287 279 287 316 321 318 304
167 169 178 177 177 178 180 183 185 188 194 198 203 202 201 199 196 200 203 208 211 211 212 212 213 215 222 228 232 240 252 262 274 287 259 272 303 261 288 317 319 308 292
169 174 183 179 181 183 185 188 189 192 198 206 210 210 209 208 206 212 216 221 221 219 217 216 218 223 230 238 248 256 264 272 279 280 284 289 254 264 288 312 311 302 283
170 177 183 181 185 187 192 196 198 200 206 213 216 216 215 217 217 221 229 230 226 223 220 221 225 231 238 245 254 262 268 273 277 284 274 286 275 281 289 305 304 295 278
174 178 181 186 188 192 199 202 206 209 212 217 220 222 223 225 225 229 238 237 231 227 226 228 232 238 245 251 258 266 271 275 277 275 264 283 266 273 288 303 303 288 275
179 182 185 183 195 199 205 206 211 216 218 221 225 227 228 230 232 236 241 242 236 232 231 235 239 243 249 255 262 269 274 276 276 271 271 268 269 280 289 303 301 286 277
185 186 189 189 196 196 205 219 217 220 223 226 229 231 234 234 240 242 241 239 238 237 238 241 244 248 254 260 268 279 284 278 270 269 276 271 274 277 293 303 297 288 284
190 191 193 194 197 199 201 219 236 230 228 231 232 235 234 231 223 239 245 260 252 244 243 244 247 251 256 261 272 271 291 270 264 275 275 275 276 282 295 300 295 291 287
191 193 196 198 199 203 203 211 218 213 221 225 223 224 231 226 235 236 234 255 256 247 245 248 251 254 254 256 268 270 264 271 275 277 279 281 282 286 294 297 292 285 277
185 195 200 203 202 203 209 214 218 221 221 224 230 227 217 232 228 234 239 239 240 245 244 233 246 252 257 256 261 270 270 282 272 276 287 284 286 286 294 296 289 283 275
190 196 200 202 204 207 206 215 217 222 225 227 227 234 224 228 233 235 239 237 238 242 239 238 242 240 242 233 256 260 279 276 275 276 277 288 290 292 297 299 292 283 275
196 199 198 203 208 206 211 211 218 221 224 229 228 232 236 229 234 236 239 239 238 234 232 230 222 229 233 244 248 261 275 274 274 273 271 270 287 293 298 301 304 290 279
204 201 203 203 208 213 214 220 218 223 228 228 235 232 232 243 231 233 245 245 243 237 224 221 227 230 250 242 263 286 273 277 275 264 274 278 274 287 297 298 301 294 279
213 211 209 209 212 220 213 223 223 231 235 245 247 248 249 248 255 260 263 263 258 244 228 235 239 240 245 263 292 272 272 274 263 272 272 272 274 278 288 292 291 293 279
223 217 217 212 213 220 228 220 228 231 243 254 264 266 261 258 261 267 268 271 262 257 249 241 233 252 250 277 281 288 278 254 259 269 271 262 266 276 277 280 283 293 278
231 227 221 222 218 216 226 231 225 231 236 235 253 279 273 259 245 260 258 267 248 261 252 249 247 276 254 263 261 271 267 257 257 267 271 266 266 261 265 264 278 296 290
234 230 227 222 227 226 220 223 227 226 217 227 234 243 322 274 246 265 260 257 260 254 251 242 253 263 328 290 268 263 272 271 264 272 266 258 256 260 260 258 266 272 276
238 228 227 229 226 233 224 223 226 226 222 241 255 283 249 254 261 259 267 250 259 242 244 254 249 254 300 287 271 283 286 296 277 271 259 241 249 250 255 261 266 259 258
267 239 232 232 238 235 234 233 233 229 232 239 258 284 252 256 266 271 271 260 249 243 255 261 242 222 225 245 236 261 269 250 293 254 242 233 243 253 259 267 265 260 261
35 334 253 235 223 227 234 241 243 245 252 259 260 274 250 240 252 261 260 252 248 250 252 235 233 229 247 235 230 257 260 243 279 278 250 256 253 250 264 264 265 264 263
30 24 3 207 220 213 211 224 243 268 265 269 261 263 270 272 270 266 259 266 259 250 245 253 231 244 262 242 240 258 256 254 261 262 279 280 271 257 266 267 269 270 280
29 31 32 23 358 336 231 262 237 224 249 253 265 272 279 282 268 268 257 268 267 250 242 250 232 250 239 248 246 235 240 247 255 263 271 277 280 278 275 274 270 263 280